Change the Weather History Date:

Tuesday, March 18, 2014

  Actual Average Record
Temperature  
Mean Temperature 18 °F -  
Max Temperature 28 °F 42 °F 55 °F (2012)
Min Temperature 9 °F 26 °F 8 °F (2013)
Degree Days  
Heating Degree Days 46    
Moisture  
Dew Point 3 °F    
Average Humidity 49    
Maximum Humidity 67    
Minimum Humidity 24    
Precipitation  
Precipitation 0.00 in 0.16 in - ()
Sea Level Pressure  
Sea Level Pressure 30.15 in    
Wind  
Wind Speed 10 mph ()    
Max Wind Speed 24 mph    
Max Gust Speed 26 mph    
Visibility 15.0 miles    
Events      
Averages and records for this station are not official NWS values.
T = Trace of Precipitation, MM = Missing Value Source: Averaged Metar Reports

Daily Weather History Graph

Daily Weather History Graph

Search for Another Location

Airport or City:

Trip Planner

Search our weather history database for the weather conditions in past years. The results will help you decide how hot, cold, wet, or windy it might be!

Date:

Astronomy

Mar. 18, 2014 Rise Set
Actual Time 7:20 AM ADT 7:23 PM ADT
Civil Twilight 6:51 AM ADT 7:53 PM ADT
Nautical Twilight 6:17 AM ADT 8:27 PM ADT
Astronomical Twilight 5:42 AM ADT 9:02 PM ADT
Moon 9:43 PM ADT (3/18) 8:02 AM ADT (3/18)
Length of Visible Light 13h 01m
Length of Day
12h 02m
Waning Gibbous, 96% of the Moon is Illuminated
Mar 18
Waning Gibbous
Mar 23
Last Quarter
Mar 30
New
Apr 7
First Quarter
Apr 15
Full

Hourly Weather History & Observations

Time (ADT) Temp. Windchill Dew Point Humidity Pressure Visibility Wind Dir Wind Speed Gust Speed Precip Events Conditions
12:00 AM 12.2 °F -0.2 °F -0.4 °F 57% 30.00 in 15.0 mi NW 9.2 mph - N/A   Clear
1:00 AM 12.2 °F -1.0 °F -2.2 °F 53% 30.01 in 15.0 mi NW 10.4 mph - N/A   Clear
2:00 AM 12.2 °F -0.2 °F -2.2 °F 53% 30.02 in 15.0 mi NW 9.2 mph - N/A   Clear
3:00 AM 12.2 °F 1.7 °F -2.2 °F 53% 30.04 in 15.0 mi NW 6.9 mph - N/A   Clear
4:00 AM 12.2 °F -0.2 °F -4.0 °F 48% 30.04 in 15.0 mi WNW 9.2 mph - N/A   Clear
5:00 AM 12.2 °F -0.2 °F -2.2 °F 53% 30.06 in 15.0 mi WNW 9.2 mph - N/A   Clear
6:00 AM 10.4 °F -3.3 °F -0.4 °F 62% 30.08 in 15.0 mi WNW 10.4 mph - N/A   Clear
7:00 AM 10.4 °F -2.4 °F -0.4 °F 62% 30.10 in 15.0 mi West 9.2 mph - N/A   Clear
8:00 AM 10.4 °F -3.3 °F 1.4 °F 67% 30.14 in 15.0 mi West 10.4 mph - N/A   Clear
9:00 AM 13 °F - 1 °F 44% 30.12 in 15 mi WNW 12.7 mph - -  
9:00 AM 14.0 °F -0.2 °F 1.4 °F 57% 30.12 in 15.0 mi WNW 12.7 mph - N/A   Clear
10:00 AM 17.6 °F 5.0 °F 3.2 °F 53% 30.13 in 15.0 mi WNW 11.5 mph 23.0 mph N/A   Clear
11:00 AM 19.4 °F 4.1 °F 1.4 °F 46% 30.13 in 15.0 mi WNW 18.4 mph - N/A   Clear
12:00 PM 21.2 °F 7.3 °F 3.2 °F 46% 30.15 in 15.0 mi WNW 16.1 mph 23.0 mph N/A   Clear
1:00 PM 24.8 °F 11.1 °F 1.4 °F 36% 30.16 in 15.0 mi WNW 18.4 mph 26.5 mph N/A   Clear
2:00 PM 26.6 °F 13.4 °F 3.2 °F 37% 30.14 in 15.0 mi NW 18.4 mph 25.3 mph N/A   Clear
3:00 PM 27 °F - 5 °F 24% 30.15 in 15 mi NW 21.9 mph - -  
3:00 PM 26.6 °F 11.7 °F 5.0 °F 40% 30.14 in 15.0 mi NW 24.2 mph - N/A   Clear
4:00 PM 26.6 °F 14.7 °F 6.8 °F 43% 30.15 in 15.0 mi WNW 15.0 mph 25.3 mph N/A   Clear
5:00 PM 26.6 °F 13.1 °F 6.8 °F 43% 30.18 in 15.0 mi NW 19.6 mph - N/A   Clear
6:00 PM 26.6 °F 14.7 °F 6.8 °F 43% 30.21 in 15.0 mi WNW 15.0 mph - N/A   Clear
7:00 PM 24.8 °F 12.9 °F 6.8 °F 46% 30.25 in 15.0 mi WNW 13.8 mph - N/A   Clear
8:00 PM 23.0 °F 13.9 °F 6.8 °F 50% 30.29 in 15.0 mi West 8.1 mph - N/A   Clear
9:00 PM 22 °F - 7 °F 39% 30.30 in 15 mi West 6.9 mph - -  
9:00 PM 23.0 °F 15.8 °F 6.8 °F 50% 30.30 in 15.0 mi West 5.8 mph - N/A   Clear
10:00 PM 21.2 °F 14.9 °F 6.8 °F 54% 30.31 in 15.0 mi West 4.6 mph - N/A   Clear
11:00 PM 21.2 °F 13.6 °F 8.6 °F 58% 30.32 in 15.0 mi WSW 5.8 mph - N/A   Clear